Welcome to Crazy Orc, l'antre du jeu de rôles à Lyon. Please login or sign up.

14 Juin 2024 à 09:09:44

Login with username, password and session length

Crazy Orc, l'antre du jeu de rôles à Lyon - Centre de statistiques

Statistiques générales

Total des membres:
799
Total des messages:
98565
Total des sujets:
4338
Total des catégories:
4
Membres en ligne:
142
Connexions simultanées:
808 - 21 Janvier 2020 à 20:55:59
En ligne aujourd'hui:
274
Total des pages vues:
45038090
Moyenne des inscriptions par jour:
0.26
Moyenne des messages par jour:
22.58
Moyenne des sujets par jour:
1.04
Total des sections:
40
Dernier membre:
Gwladiatrix
Moyenne d'utilisateurs connectés par jour:
55.58
Statistiques des sexes:
Ne pas afficher: 365
Masculin: 362
Féminin: 72
Pages vues en moyenne par jour:
7138.71

Top 10 des posteurs

ManuDevil
7081
GroumpH
5098
nunch
3857
LeDupontesque
3086
jules
3026
Mandy
2883
Scratchy
2766
MAO
2493
snake
1947
Le0
1878

Top lanceurs de sujets

nunch
600
Morithil
472
ManuDevil
293
GroumpH
246
Scratchy
132
MAO
110
LeDupontesque
106
jules
99
snake
92
CCCP
86

Le plus de temps en ligne

Mandy
133 j 19 h 59 m
GroumpH
112 j 9 h 16 m
CCCP
89 j 59 m
Nukeflow
73 j 8 h 19 m
ManuDevil
69 j 10 h 52 m
Felipe
61 j 12 h 19 m
dao
56 j 17 h 58 m
nunch
49 j 1 h 48 m
Patate
43 j 10 h 34 m
Rh
42 j 23 h 32 m

Les utilisateurs les plus aimés

ManuDevil
84
Arkana31
76
MJulien
28
Morithil
25
Phil
24
Lionhell
24
LeDupontesque
22
Patate
19
DeReel (il)
16
Haley Lektrik
12

Historique du forum (basé sur l'heure interne du forum)

Résumé annuel Nouveaux sujets Nouveaux messages Nouveaux membres Connexions simultanées Pages vues
* 2024 73 475 65 600 5734290
Juin 2024 1 15 1 353 570638
Mai 2024 13 60 3 520 1042723
Avril 2024 16 93 16 600 1613449
Mars 2024 14 105 12 553 672303
Février 2024 17 116 25 349 567612
Janvier 2024 12 86 8 301 1267565
* 2023 193 1234 127 260 5271275
Décembre 2023 17 64 5 260 1399734
Novembre 2023 12 123 14 217 909538
Octobre 2023 21 141 12 187 333148
Septembre 2023 19 182 18 138 366302
Août 2023 8 42 7 130 236673
Juillet 2023 6 39 4 140 269774
Juin 2023 23 109 10 159 303581
Mai 2023 23 124 16 182 262587
Avril 2023 19 159 11 174 284480
Mars 2023 13 86 6 155 330966
Février 2023 13 62 5 165 274947
Janvier 2023 19 103 19 148 299545
2023-01-01 0 0 0 97 10016
2023-01-02 0 0 0 106 10427
2023-01-03 0 1 0 100 11636
2023-01-04 1 3 1 126 8791
2023-01-05 0 3 1 139 12163
2023-01-06 2 7 1 148 13645
2023-01-07 0 2 0 138 13051
2023-01-08 0 4 1 139 9561
2023-01-09 0 2 0 111 29698
2023-01-10 1 2 0 140 17944
2023-01-11 0 2 0 141 9105
2023-01-12 1 1 1 99 5839
2023-01-13 1 6 3 77 8988
2023-01-14 0 4 1 95 6890
2023-01-15 1 7 2 74 7061
2023-01-16 1 5 1 59 5295
2023-01-17 1 5 0 85 5992
2023-01-18 1 6 1 91 8441
2023-01-19 0 3 0 85 6217
2023-01-20 0 3 1 96 6928
2023-01-21 0 2 1 106 5360
2023-01-22 1 3 0 121 9796
2023-01-23 6 11 0 78 5683
2023-01-24 0 4 1 126 7673
2023-01-25 0 4 0 89 6569
2023-01-26 1 1 1 75 8282
2023-01-27 1 3 1 83 10165
2023-01-28 0 5 0 92 8959
2023-01-29 0 0 0 89 10283
2023-01-30 0 3 0 92 9435
2023-01-31 0 1 1 91 9652
* 2022 183 1154 96 261 3778792
Décembre 2022 9 37 1 161 306381
Novembre 2022 16 103 6 261 350274
2022-11-01 0 3 0 148 14260
2022-11-02 0 3 0 132 22046
2022-11-03 0 8 0 80 6888
2022-11-04 2 6 2 91 6568
2022-11-05 6 8 0 109 6769
2022-11-06 0 1 0 114 5687
2022-11-07 0 7 0 114 8498
2022-11-08 0 6 0 134 17687
2022-11-09 0 0 0 150 30355
2022-11-10 0 3 0 150 9759
2022-11-11 0 6 0 261 16567
2022-11-12 0 4 1 191 9994
2022-11-13 1 4 0 106 6541
2022-11-14 0 3 0 71 5798
2022-11-15 0 0 0 58 4130
2022-11-16 0 0 0 45 2987
2022-11-17 0 0 0 39 3211
2022-11-18 0 2 0 60 3945
2022-11-19 0 1 0 49 7707
2022-11-20 5 10 1 79 16954
2022-11-21 0 4 0 81 33709
2022-11-22 1 2 0 120 13629
2022-11-23 0 4 0 118 13870
2022-11-24 0 4 0 112 13751
2022-11-25 0 4 0 139 12240
2022-11-26 0 3 0 139 12770
2022-11-27 0 1 0 68 11737
2022-11-28 0 3 0 70 11052
2022-11-29 0 2 0 75 11339
2022-11-30 1 1 2 66 9826
Octobre 2022 11 120 17 208 290108
Septembre 2022 17 115 6 258 357415
2022-09-01 0 0 0 128 16661
2022-09-02 0 0 0 121 10578
2022-09-03 0 4 0 109 9553
2022-09-04 1 11 1 86 11208
2022-09-05 0 4 0 82 15189
2022-09-06 0 2 0 79 11992
2022-09-07 0 11 0 90 7293
2022-09-08 4 5 0 83 12257
2022-09-09 0 3 1 82 24589
2022-09-10 1 4 0 79 10685
2022-09-11 0 5 0 98 9991
2022-09-12 0 0 0 83 10009
2022-09-13 0 6 0 87 10925
2022-09-14 0 1 0 104 13455
2022-09-15 0 2 0 106 14043
2022-09-16 0 2 0 93 8130
2022-09-17 0 7 0 71 8485
2022-09-18 3 9 0 42 7202
2022-09-19 0 3 0 42 7737
2022-09-20 0 1 0 54 7899
2022-09-21 0 3 0 97 9162
2022-09-22 0 2 0 59 7878
2022-09-23 1 9 1 109 11811
2022-09-24 1 5 2 40 8832
2022-09-25 1 2 0 258 12849
2022-09-26 0 1 0 115 13354
2022-09-27 0 0 0 119 15370
2022-09-28 5 11 1 164 29200
2022-09-29 0 0 0 52 10432
2022-09-30 0 2 0 49 10646
Août 2022 15 108 9 147 318817
Juillet 2022 13 69 4 208 308045
Juin 2022 14 76 4 62 333112
Mai 2022 16 118 8 91 339244
Avril 2022 18 133 12 61 254691
Mars 2022 15 123 8 65 281935
Février 2022 17 84 9 58 314588
2022-02-01 1 3 0 44 7006
2022-02-02 0 2 0 47 7466
2022-02-03 3 6 1 43 9692
2022-02-04 0 0 0 43 8105
2022-02-05 1 4 1 43 5673
2022-02-06 0 3 0 52 6200
2022-02-07 0 0 1 42 6001
2022-02-08 1 2 0 46 12159
2022-02-09 1 5 2 39 14039
2022-02-10 0 0 0 58 14006
2022-02-11 0 1 1 40 11616
2022-02-12 0 0 0 50 14000
2022-02-13 0 1 0 47 6670
2022-02-14 3 3 0 47 14159
2022-02-15 0 4 0 45 22511
2022-02-16 1 7 0 48 48711
2022-02-17 0 2 1 39 7849
2022-02-18 0 1 0 46 11058
2022-02-19 0 3 0 56 12386
2022-02-20 0 3 0 44 8624
2022-02-21 0 4 0 53 7136
2022-02-22 0 0 0 42 6346
2022-02-23 0 1 0 44 8801
2022-02-24 0 5 1 51 9114
2022-02-25 1 5 0 50 10835
2022-02-26 0 6 0 56 9748
2022-02-27 1 2 1 46 7591
2022-02-28 4 11 0 49 7086
Janvier 2022 22 68 12 70 324182
* 2021 129 756 53 338 4376522
Décembre 2021 8 37 0 129 661064
Novembre 2021 13 99 4 153 262314
2021-11-01 0 1 0 104 6791
2021-11-02 1 4 0 86 7303
2021-11-03 3 9 1 90 4912
2021-11-04 1 2 0 113 8815
2021-11-05 1 12 1 82 8224
2021-11-06 0 6 0 79 7367
2021-11-07 0 6 0 70 7525
2021-11-08 0 0 0 84 5740
2021-11-09 0 2 0 81 6641
2021-11-10 0 2 0 115 6991
2021-11-11 2 8 0 122 9859
2021-11-12 0 3 0 125 14014
2021-11-13 0 1 1 135 14443
2021-11-14 0 3 0 153 13594
2021-11-15 0 1 0 139 14330
2021-11-16 0 2 1 132 10656
2021-11-17 0 3 0 88 7851
2021-11-18 0 1 0 88 9836
2021-11-19 0 3 0 75 12547
2021-11-20 0 4 0 72 7556
2021-11-21 0 0 0 61 5092
2021-11-22 4 7 0 67 7221
2021-11-23 1 4 0 75 7572
2021-11-24 0 3 0 71 7662
2021-11-25 0 0 0 80 5738
2021-11-26 0 1 0 75 6288
2021-11-27 0 6 0 77 8820
2021-11-28 0 2 0 83 6614
2021-11-29 0 2 0 74 11072
2021-11-30 0 1 0 122 11240
Octobre 2021 20 208 15 159 298103
Septembre 2021 24 171 10 280 285455
Août 2021 11 33 7 73 231609
Juillet 2021 6 8 2 81 305173
Juin 2021 17 31 2 135 311168
Mai 2021 3 31 4 268 597777
2021-05-01 0 0 0 119 39331
2021-05-02 0 0 0 106 59354
2021-05-03 0 9 1 101 44504
2021-05-04 0 2 0 125 12453
2021-05-05 1 2 0 100 11360
2021-05-06 0 0 0 101 9692
2021-05-07 0 2 0 106 8406
2021-05-08 0 0 0 99 174998
2021-05-09 0 0 1 97 28918
2021-05-10 1 2 0 97 8620
2021-05-11 0 1 0 89 11124
2021-05-12 0 0 0 83 7881
2021-05-13 0 0 0 118 7343
2021-05-14 0 2 0 93 7444
2021-05-15 0 0 0 108 8389
2021-05-16 0 0 0 88 7431
2021-05-17 0 0 0 89 8744
2021-05-18 0 1 0 92 6838
2021-05-19 0 1 0 268 11518
2021-05-20 0 0 0 98 21067
2021-05-21 1 1 0 152 11521
2021-05-22 0 0 0 146 11070
2021-05-23 0 0 0 124 9498
2021-05-24 0 1 0 109 10311
2021-05-25 0 5 1 112 11048
2021-05-26 0 0 0 115 7597
2021-05-27 0 0 0 100 8270
2021-05-28 0 0 0 70 10782
2021-05-29 0 1 0 69 7978
2021-05-30 0 0 1 67 7768
2021-05-31 0 1 0 47 6519
Avril 2021 10 51 6 287 308355
2021-04-01 1 5 1 73 10500
2021-04-02 0 2 0 71 8047
2021-04-03 0 0 0 59 7541
2021-04-04 1 3 1 56 9206
2021-04-05 0 0 0 59 8809
2021-04-06 0 1 0 59 6737
2021-04-07 0 4 0 63 6731
2021-04-08 0 0 0 64 9161
2021-04-09 0 0 0 65 8780
2021-04-10 0 0 0 64 8686
2021-04-11 0 1 0 59 9738
2021-04-12 0 2 0 63 9761
2021-04-13 1 3 1 71 11667
2021-04-14 0 4 0 287 14963
2021-04-15 0 0 0 74 11393
2021-04-16 0 2 0 68 9533
2021-04-17 0 0 0 68 7869
2021-04-18 0 0 0 73 6458
2021-04-19 0 1 0 67 6158
2021-04-20 3 3 1 76 9885
2021-04-21 1 8 1 91 8256
2021-04-22 0 5 0 132 10159
2021-04-23 0 0 0 145 14980
2021-04-24 1 1 0 132 12209
2021-04-25 0 2 0 142 12832
2021-04-26 1 2 0 116 9593
2021-04-27 0 1 0 118 9289
2021-04-28 0 0 1 107 12148
2021-04-29 0 0 0 107 9489
2021-04-30 1 1 0 104 27777
Mars 2021 7 24 1 308 444900
Février 2021 5 29 2 338 223056
Janvier 2021 5 34 0 322 447548
* 2020 206 1716 105 808 4713463
Décembre 2020 6 38 2 320 310487
Novembre 2020 12 97 3 352 464426
2020-11-01 0 1 0 116 10715
2020-11-02 2 3 0 125 9649
2020-11-03 0 7 0 102 10433
2020-11-04 0 0 0 95 11152
2020-11-05 0 3 0 92 11950
2020-11-06 1 4 0 86 9328
2020-11-07 0 9 0 79 13532
2020-11-08 0 4 0 97 10296
2020-11-09 1 6 0 85 10894
2020-11-10 0 5 0 79 6851
2020-11-11 0 1 0 83 6495
2020-11-12 0 1 0 86 10836
2020-11-13 0 1 0 80 9519
2020-11-14 0 0 0 72 8283
2020-11-15 0 2 0 77 8335
2020-11-16 3 10 1 78 9396
2020-11-17 0 1 0 104 10915
2020-11-18 1 2 0 352 16974
2020-11-19 0 4 0 95 11042
2020-11-20 1 4 2 87 10172
2020-11-21 0 1 0 87 9318
2020-11-22 1 7 0 81 8520
2020-11-23 0 2 0 86 12898
2020-11-24 0 3 0 101 11997
2020-11-25 0 2 0 113 14003
2020-11-26 1 3 0 108 12703
2020-11-27 0 6 0 90 63154
2020-11-28 0 1 0 92 102895
2020-11-29 0 2 0 105 11784
2020-11-30 1 2 0 116 10387
Octobre 2020 21 169 7 346 497422
Septembre 2020 30 356 15 133 325183
Août 2020 16 147 7 163 471897
Juillet 2020 16 77 2 100 345760
Juin 2020 17 60 5 127 452817
Mai 2020 7 22 3 295 321652
Avril 2020 10 47 1 189 300030
Mars 2020 24 253 3 199 467854
Février 2020 18 171 9 323 281798
Janvier 2020 29 279 48 808 474137
* 2019 246 3411 313 446 3308531
Décembre 2019 18 159 26 446 351248
Novembre 2019 16 245 33 325 524135
Octobre 2019 24 272 59 121 189762
Septembre 2019 25 386 54 141 376708
Août 2019 22 257 31 122 225760
Juillet 2019 24 281 62 149 190301
Juin 2019 11 171 3 112 246519
Mai 2019 23 311 10 167 218891
Avril 2019 21 294 9 174 311459
Mars 2019 22 372 16 142 344146
Février 2019 18 288 4 110 142132
Janvier 2019 22 375 6 113 187470
* 2018 338 6176 81 641 2624946
Décembre 2018 43 306 8 253 421582
Novembre 2018 26 467 9 641 383363
Octobre 2018 34 527 6 321 248725
2018-10-01 0 16 0 104 3916
2018-10-02 2 19 0 102 5182
2018-10-03 0 11 0 124 6042
2018-10-04 1 8 0 89 7397
2018-10-05 0 1 1 89 4993
2018-10-06 1 10 0 123 5725
2018-10-07 1 14 1 93 5795
2018-10-08 2 17 0 102 5479
2018-10-09 1 29 1 113 7032
2018-10-10 1 19 0 139 7853
2018-10-11 2 19 0 126 7235
2018-10-12 1 28 0 140 7594
2018-10-13 0 12 0 135 7817
2018-10-14 5 26 0 146 7428
2018-10-15 2 51 0 149 7144
2018-10-16 0 22 0 102 6306
2018-10-17 4 25 0 121 6311
2018-10-18 2 14 0 122 6339
2018-10-19 0 10 0 136 5992
2018-10-20 0 8 0 115 6644
2018-10-21 0 15 1 129 6181
2018-10-22 0 11 0 112 5588
2018-10-23 1 9 0 127 15828
2018-10-24 1 15 1 135 23623
2018-10-25 0 8 0 321 10005
2018-10-26 2 34 1 145 7134
2018-10-27 2 19 0 252 10544
2018-10-28 0 9 0 276 9982
2018-10-29 1 15 0 269 10127
2018-10-30 2 21 0 207 9059
2018-10-31 0 12 0 255 12430
Septembre 2018 34 641 10 127 216306
Août 2018 32 583 16 101 188648
Juillet 2018 21 386 3 104 182475
Juin 2018 31 442 3 110 213303
Mai 2018 21 422 4 107 174393
Avril 2018 25 564 5 104 159849
Mars 2018 20 634 4 96 152933
Février 2018 25 631 7 93 121912
Janvier 2018 26 573 6 94 161457
* 2017 346 6100 56 180 1675168
Décembre 2017 37 499 6 91 136063
Novembre 2017 37 675 6 93 169670
Octobre 2017 15 426 2 93 151449
Septembre 2017 28 548 5 94 135543
2017-09-01 0 19 0 85 4606
2017-09-02 6 27 1 81 5694
2017-09-03 0 13 0 80 4704
2017-09-04 0 16 0 73 3541
2017-09-05 1 31 0 70 4047
2017-09-06 0 12 0 74 8718
2017-09-07 1 10 0 72 3635
2017-09-08 2 11 0 73 3838
2017-09-09 0 25 0 73 3496
2017-09-10 1 20 1 77 4556
2017-09-11 3 16 0 94 4101
2017-09-12 0 23 0 80 4866
2017-09-13 1 11 1 76 4485
2017-09-14 0 12 0 79 4369
2017-09-15 2 27 1 85 4589
2017-09-16 1 10 1 81 3899
2017-09-17 0 28 0 85 4424
2017-09-18 2 29 0 79 5214
2017-09-19 1 25 0 76 4323
2017-09-20 2 9 0 74 4217
2017-09-21 1 13 0 75 4677
2017-09-22 0 19 0 77 3928
2017-09-23 0 15 0 71 4378
2017-09-24 1 23 0 75 4483
2017-09-25 0 32 0 82 4657
2017-09-26 0 21 0 81 4174
2017-09-27 0 13 0 76 4562
2017-09-28 0 8 0 83 4632
2017-09-29 3 23 0 79 4537
2017-09-30 0 7 0 77 4193
Août 2017 29 384 6 99 148097
Juillet 2017 25 490 5 87 176472
Juin 2017 33 603 4 89 156248
Mai 2017 26 470 2 99 181189
Avril 2017 31 490 5 180 139896
2017-04-01 0 14 0 48 4179
2017-04-02 1 21 0 41 11405
2017-04-03 2 14 0 44 1551
2017-04-04 0 6 0 22 930
2017-04-05 2 13 0 19 1221
2017-04-06 0 20 0 20 4204
2017-04-07 0 9 0 19 2345
2017-04-08 1 18 0 22 2529
2017-04-09 1 5 1 17 1209
2017-04-10 3 36 1 44 2839
2017-04-11 2 22 0 74 4607
2017-04-12 2 19 0 62 5808
2017-04-13 0 31 0 64 3713
2017-04-14 2 35 0 59 3257
2017-04-15 0 8 0 68 3136
2017-04-16 0 12 0 63 3438
2017-04-17 2 22 0 58 3762
2017-04-18 2 30 0 81 5391
2017-04-19 1 23 1 122 6928
2017-04-20 1 8 0 68 5309
2017-04-21 0 14 0 51 3988
2017-04-22 0 2 0 47 4082
2017-04-23 2 18 0 51 6943
2017-04-24 1 15 1 51 4833
2017-04-25 2 26 1 180 6646
2017-04-26 3 19 0 83 8145
2017-04-27 0 2 0 68 8631
2017-04-28 0 2 0 61 4684
2017-04-29 1 18 0 58 6307
2017-04-30 0 8 0 54 7876
Mars 2017 27 432 3 119 90981
Février 2017 31 587 7 87 74924
Janvier 2017 27 496 5 80 114636
* 2016 389 7721 79 245 2075605
Décembre 2016 34 533 2 170 118206
Novembre 2016 34 586 6 245 122991
Octobre 2016 43 726 7 191 160217
Septembre 2016 26 657 9 85 157449
Août 2016 31 721 9 114 169873
Juillet 2016 19 513 3 58 166690
Juin 2016 30 565 5 53 211715
Mai 2016 40 1116 8 94 166514
Avril 2016 27 529 7 65 155208
Mars 2016 35 513 11 88 224056
2016-03-01 0 6 0 84 7045
2016-03-02 1 11 1 83 17011
2016-03-03 0 7 0 79 6329
2016-03-04 1 18 0 71 5591
2016-03-05 0 8 0 68 5241
2016-03-06 4 24 2 77 5361
2016-03-07 0 24 0 76 5677
2016-03-08 0 25 0 79 5918
2016-03-09 1 32 0 88 5988
2016-03-10 1 14 0 68 5103
2016-03-11 2 24 0 71 5694
2016-03-12 1 12 2 75 5118
2016-03-13 2 17 0 76 5419
2016-03-14 1 25 0 24 3103
2016-03-15 1 18 0 24 3559
2016-03-16 1 11 0 19 2822
2016-03-17 0 11 0 18 2814
2016-03-18 0 15 0 74 8907
2016-03-19 1 8 2 84 11132
2016-03-20 4 42 2 23 4754
2016-03-21 0 17 0 86 21637
2016-03-22 2 11 0 31 3560
2016-03-23 0 6 1 80 6777
2016-03-24 2 23 0 70 6789
2016-03-25 1 7 0 63 5275
2016-03-26 0 10 0 75 7097
2016-03-27 1 10 0 29 4648
2016-03-28 4 14 1 65 8721
2016-03-29 1 16 0 70 7413
2016-03-30 0 15 0 66 20524
2016-03-31 3 32 0 64 9029
Février 2016 35 640 4 96 192454
Janvier 2016 35 622 8 95 230232
* 2015 373 6684 79 100 1549803
Décembre 2015 28 499 7 68 140303
2015-12-01 0 25 0 16 2350
2015-12-02 0 13 0 16 2355
2015-12-03 1 32 1 21 3677
2015-12-04 0 20 0 17 2064
2015-12-05 0 16 1 21 3894
2015-12-06 0 13 0 20 5745
2015-12-07 0 6 0 35 3625
2015-12-08 1 17 0 32 4443
2015-12-09 0 4 0 35 7622
2015-12-10 1 6 0 32 5400
2015-12-11 0 19 0 35 19913
2015-12-12 1 21 1 25 3299
2015-12-13 7 38 0 30 4377
2015-12-14 0 26 0 27 3642
2015-12-15 2 29 1 32 5486
2015-12-16 4 39 0 37 6111
2015-12-17 0 14 0 18 3269
2015-12-18 0 17 0 13 2944
2015-12-19 1 16 0 18 3387
2015-12-20 0 14 0 17 3339
2015-12-21 0 2 0 14 2174
2015-12-22 0 0 1 21 3147
2015-12-23 2 10 0 14 2552
2015-12-24 1 11 0 43 2912
2015-12-25 2 20 0 13 2346
2015-12-26 0 10 0 12 2235
2015-12-27 1 11 0 10 6406
2015-12-28 3 29 1 65 5360
2015-12-29 0 2 1 53 4266
2015-12-30 1 12 0 68 5376
2015-12-31 0 7 0 57 6587
Novembre 2015 40 724 5 35 146607
Octobre 2015 32 760 10 84 227528
Septembre 2015 40 948 13 100 169012
Août 2015 36 566 12 61 119954
Juillet 2015 29 462 7 31 89666
Juin 2015 24 453 5 30 112317
Mai 2015 30 390 2 24 73874
Avril 2015 29 408 4 25 95371
Mars 2015 38 550 7 37 130116
Février 2015 15 434 2 24 123854
Janvier 2015 32 490 5 44 121201
* 2014 428 7364 58 58 2478164
Décembre 2014 24 360 4 33 191610
Novembre 2014 37 572 7 46 525858
Octobre 2014 45 928 8 58 364915
Septembre 2014 24 549 8 32 162413
Août 2014 17 251 4 27 191624
Juillet 2014 25 369 3 30 236312
Juin 2014 29 602 3 32 220918
Mai 2014 34 842 6 29 157174
Avril 2014 45 662 1 25 104486
Mars 2014 32 595 4 26 120439
Février 2014 24 660 5 28 102996
Janvier 2014 92 974 5 33 99419
* 2013 408 8887 76 89 1597727
Décembre 2013 36 785 2 79 132305
Novembre 2013 36 751 8 29 141119
Octobre 2013 37 683 10 26 116570
Septembre 2013 33 723 15 29 160779
Août 2013 20 356 4 30 113960
2013-08-01 0 1 0 17 6165
2013-08-02 2 10 1 30 3363
2013-08-03 0 4 0 18 3801
2013-08-04 1 6 0 15 4126
2013-08-05 2 13 0 22 3858
2013-08-06 0 8 0 17 5385
2013-08-07 0 5 0 17 3665
2013-08-08 0 10 0 18 3057
2013-08-09 0 6 0 18 4374
2013-08-10 1 2 0 16 4563
2013-08-11 0 9 0 17 4114
2013-08-12 0 1 0 20 4489
2013-08-13 1 17 0 19 4829
2013-08-14 0 7 0 15 2333
2013-08-15 0 2 0 14 2977
2013-08-16 0 1 0 15 4833
2013-08-17 0 2 0 13 3056
2013-08-18 0 7 0 13 2784
2013-08-19 1 3 0 12 3124
2013-08-20 1 8 0 13 2097
2013-08-21 0 10 0 14 2180
2013-08-22 0 9 0 15 2515
2013-08-23 0 13 1 23 3032
2013-08-24 2 21 0 14 2563
2013-08-25 1 8 0 14 2604
2013-08-26 1 13 0 14 1978
2013-08-27 1 22 0 18 2519
2013-08-28 0 30 0 14 3594
2013-08-29 0 26 1 17 2491
2013-08-30 2 41 1 20 8436
2013-08-31 4 41 0 22 5055
Juillet 2013 21 331 2 24 120164
2013-07-01 0 9 0 24 4330
2013-07-02 1 11 0 16 2693
2013-07-03 4 28 0 23 4775
2013-07-04 2 26 0 16 4174
2013-07-05 0 16 0 20 4074
2013-07-06 0 8 0 21 4135
2013-07-07 1 6 0 17 2726
2013-07-08 1 11 0 17 4747
2013-07-09 0 9 0 18 3831
2013-07-10 0 5 0 16 3040
2013-07-11 1 6 0 19 4713
2013-07-12 1 16 0 19 4099
2013-07-13 0 3 0 14 4400
2013-07-14 0 2 0 15 3941
2013-07-15 0 2 0 15 3367
2013-07-16 1 4 0 18 4261
2013-07-17 2 23 0 22 3788
2013-07-18 0 16 0 15 3415
2013-07-19 1 2 0 16 2111
2013-07-20 1 7 0 17 1889
2013-07-21 0 5 0 18 4035
2013-07-22 2 21 0 15 10438
2013-07-23 0 9 1 18 4311
2013-07-24 1 12 0 15 4353
2013-07-25 1 15 0 24 3021
2013-07-26 0 10 0 20 4122
2013-07-27 1 12 0 12 2914
2013-07-28 0 7 0 17 2977
2013-07-29 0 13 0 19 2352
2013-07-30 0 9 1 17 2615
2013-07-31 0 8 0 18 4517
Juin 2013 40 731 5 34 119512
Mai 2013 34 881 3 47 157484
Avril 2013 38 799 8 33 124279
Mars 2013 40 1111 9 62 147762
Février 2013 32 838 5 79 125299
Janvier 2013 41 898 5 89 138494
* 2012 446 10690 67 157 1274957
Décembre 2012 57 1411 4 45 150137
Novembre 2012 46 1137 8 25 112399
Octobre 2012 45 1068 7 25 80970
Septembre 2012 37 876 11 38 107023
Août 2012 30 595 5 41 95032
Juillet 2012 24 563 2 157 78638
2012-07-01 2 33 0 20 3383
2012-07-02 0 39 0 16 3176
2012-07-03 1 42 0 21 2769
2012-07-04 0 21 0 18 2427
2012-07-05 0 28 0 19 2191
2012-07-06 0 29 0 15 2402
2012-07-07 2 10 0 25 4165
2012-07-08 0 13 1 17 1741
2012-07-09 2 18 0 14 3585
2012-07-10 2 24 0 14 2317
2012-07-11 0 39 0 22 3204
2012-07-12 0 32 0 14 1963
2012-07-13 1 28 0 16 1977
2012-07-14 0 17 0 16 1834
2012-07-15 3 22 0 30 3446
2012-07-16 1 11 0 26 3044
2012-07-17 0 5 0 13 1616
2012-07-18 2 14 0 15 1754
2012-07-19 0 21 0 13 2427
2012-07-20 0 15 0 18 1824
2012-07-21 0 10 0 10 1292
2012-07-22 0 6 0 18 1434
2012-07-23 1 7 0 17 1873
2012-07-24 2 8 0 157 7112
2012-07-25 2 13 1 13 1667
2012-07-26 1 6 0 14 1478
2012-07-27 1 14 0 16 2610
2012-07-28 0 6 0 17 2026
2012-07-29 0 11 0 16 2266
2012-07-30 1 11 0 15 2745
2012-07-31 0 10 0 17 2890
Juin 2012 39 984 10 33 88620
2012-06-01 0 22 0 22 2768
2012-06-02 2 19 0 16 2287
2012-06-03 2 49 1 20 2991
2012-06-04 1 20 0 18 2557
2012-06-05 0 18 0 25 2088
2012-06-06 2 20 0 16 2460
2012-06-07 1 31 1 22 3106
2012-06-08 1 47 1 18 3140
2012-06-09 2 34 1 21 2277
2012-06-10 0 50 1 18 3163
2012-06-11 3 54 0 16 2912
2012-06-12 4 24 1 19 2270
2012-06-13 3 26 0 33 2675
2012-06-14 0 21 1 14 2735
2012-06-15 0 14 0 16 2910
2012-06-16 0 14 0 16 2617
2012-06-17 1 12 0 16 3557
2012-06-18 1 55 1 23 4850
2012-06-19 2 39 0 20 3959
2012-06-20 2 37 1 21 4389
2012-06-21 1 26 0 21 3322
2012-06-22 0 24 0 17 2839
2012-06-23 1 35 0 15 2885
2012-06-24 0 32 0 17 2599
2012-06-25 1 51 0 20 3408
2012-06-26 2 49 0 18 2936
2012-06-27 3 22 1 23 2275
2012-06-28 1 76 0 22 3034
2012-06-29 1 32 0 18 2424
2012-06-30 2 31 0 17 3187
Mai 2012 22 703 5 26 77701
Avril 2012 33 714 4 33 95151
Mars 2012 35 977 5 48 160160
Février 2012 34 704 5 33 117877
Janvier 2012 44 958 1 30 111249
2012-01-01 3 33 0 15 2419
2012-01-02 3 54 0 22 4785
2012-01-03 2 41 1 24 4216
2012-01-04 0 23 0 20 4356
2012-01-05 3 33 0 23 4494
2012-01-06 3 53 0 30 4247
2012-01-07 0 24 0 20 3112
2012-01-08 3 21 0 19 3575
2012-01-09 3 40 0 24 5659
2012-01-10 2 39 0 24 2961
2012-01-11 3 38 0 20 4809
2012-01-12 0 9 0 24 3309
2012-01-13 1 33 0 22 5053
2012-01-14 1 20 0 18 2639
2012-01-15 3 42 0 22 2705
2012-01-16 2 59 0 26 4036
2012-01-17 2 34 0 20 4879
2012-01-18 1 23 0 19 2689
2012-01-19 1 25 0 23 3208
2012-01-20 1 37 0 21 4457
2012-01-21 0 12 0 20 2455
2012-01-22 1 33 0 22 5353
2012-01-23 1 33 0 19 2704
2012-01-24 1 34 0 23 5671
2012-01-25 1 23 0 22 2765
2012-01-26 0 17 0 15 2256
2012-01-27 1 21 0 15 2639
2012-01-28 0 37 0 14 2277
2012-01-29 0 9 0 19 2598
2012-01-30 1 19 0 18 2202
2012-01-31 1 39 0 17 2721
* 2011 822 21877 118 48 1861895
Décembre 2011 68 1315 7 36 141929
Novembre 2011 94 1539 4 36 150015
Octobre 2011 81 1597 13 41 169207
Septembre 2011 96 1991 19 24 158540
Août 2011 68 1372 16 48 135201
Juillet 2011 57 1156 10 30 112626
Juin 2011 40 1214 6 31 149115
Mai 2011 64 1997 8 39 181997
2011-05-01 1 44 0 21 3800
2011-05-02 2 97 0 21 4247
2011-05-03 2 60 0 15 3949
2011-05-04 2 57 0 22 4174
2011-05-05 2 87 0 29 4101
2011-05-06 1 46 0 19 3293
2011-05-07 3 21 0 31 5860
2011-05-08 1 13 1 29 6061
2011-05-09 2 62 1 26 7057
2011-05-10 3 117 1 32 13635
2011-05-11 0 70 0 33 8213
2011-05-12 4 99 0 39 6910
2011-05-13 3 60 0 27 5773
2011-05-14 3 45 1 23 4456
2011-05-15 1 55 0 26 5530
2011-05-16 1 73 0 34 6924
2011-05-17 0 96 0 25 5617
2011-05-18 4 144 0 29 7640
2011-05-19 2 91 0 34 8906
2011-05-20 1 45 0 28 5778
2011-05-21 0 21 0 38 5753
2011-05-22 1 55 0 29 6481
2011-05-23 7 130 0 23 10799
2011-05-24 1 41 0 28 4569
2011-05-25 3 51 0 34 6528
2011-05-26 0 71 2 24 4490
2011-05-27 1 49 1 18 3249
2011-05-28 0 36 0 14 2868
2011-05-29 7 31 0 23 4945
2011-05-30 3 76 0 28 5514
2011-05-31 3 54 1 25 4877
Avril 2011 46 1637 9 38 176986
Mars 2011 54 2388 6 31 211307
Février 2011 59 2656 5 46 128248
Janvier 2011 95 3015 15 44 146724
* 2010 615 23079 70 91 1409620
Décembre 2010 54 2635 5 43 199984
Novembre 2010 59 2475 6 49 127779
Octobre 2010 56 2811 15 58 134942
Septembre 2010 53 1528 8 29 95249
Août 2010 32 1287 6 33 89617
Juillet 2010 34 1637 5 32 97290
2010-07-01 1 30 0 21 3321
2010-07-02 1 52 1 16 3049
2010-07-03 1 37 0 16 2560
2010-07-04 0 16 0 13 2269
2010-07-05 4 85 0 26 4056
2010-07-06 0 91 0 21 4081
2010-07-07 1 121 1 21 4639
2010-07-08 1 73 0 24 3929
2010-07-09 1 79 0 24 3726
2010-07-10 0 27 0 17 2693
2010-07-11 1 29 0 17 2442
2010-07-12 0 62 0 32 4813
2010-07-13 2 51 0 17 2918
2010-07-14 1 36 0 21 3013
2010-07-15 0 52 0 19 3510
2010-07-16 1 70 0 16 3362
2010-07-17 1 24 0 13 2507
2010-07-18 4 28 0 14 2203
2010-07-19 2 62 0 17 3256
2010-07-20 0 28 0 22 2386
2010-07-21 0 42 0 21 2918
2010-07-22 3 41 2 28 2834
2010-07-23 1 66 0 16 3158
2010-07-24 0 49 1 24 2730
2010-07-25 0 44 0 20 2856
2010-07-26 1 74 0 20 3201
2010-07-27 0 44 0 18 3066
2010-07-28 6 60 0 24 2949
2010-07-29 0 55 0 19 2833
2010-07-30 0 72 0 22 3484
2010-07-31 1 37 0 20 2528
Juin 2010 46 2137 3 28 109648
Mai 2010 50 1497 6 28 99050
Avril 2010 45 1888 3 26 102219
Mars 2010 53 1534 2 46 118201
Février 2010 65 1574 4 91 117274
2010-02-01 0 89 0 38 4425
2010-02-02 2 76 0 35 3733
2010-02-03 4 114 1 16 4361
2010-02-04 0 62 0 42 4425
2010-02-05 2 55 0 36 3911
2010-02-06 1 39 0 14 3117
2010-02-07 3 40 0 27 3953
2010-02-08 2 89 0 35 4078
2010-02-09 5 79 0 28 4799
2010-02-10 4 55 1 27 4888
2010-02-11 2 88 0 23 4506
2010-02-12 4 56 0 26 4178
2010-02-13 1 31 0 27 4062
2010-02-14 1 36 0 30 4023
2010-02-15 2 34 0 23 3907
2010-02-16 4 76 1 18 4688
2010-02-17 1 17 0 31 3201
2010-02-18 5 61 1 26 4183
2010-02-19 4 59 0 36 4081
2010-02-20 1 40 0 24 3219
2010-02-21 1 21 0 15 2977
2010-02-22 1 54 0 28 3653
2010-02-23 1 57 0 23 4114
2010-02-24 4 87 0 24 4415
2010-02-25 2 44 0 19 4413
2010-02-26 3 57 0 49 4280
2010-02-27 2 41 0 91 8619
2010-02-28 3 17 0 36 3065
Janvier 2010 68 2076 7 43 118367
* 2009 752 28223 96 159 970278
Décembre 2009 39 2001 5 54 122418
Novembre 2009 59 3138 6 38 117432
Octobre 2009 67 3218 11 18 122232
Septembre 2009 73 2730 14 159 92082
Août 2009 47 1405 8 15 61919
Juillet 2009 68 1737 11 21 67267
Juin 2009 63 2759 4 37 72789
Mai 2009 46 2166 6 16 66386
Avril 2009 101 2850 6 16 73303
Mars 2009 80 3538 7 17 83610
Février 2009 57 1586 6 16 50521
Janvier 2009 52 1095 12 10 40319
* 2008 334 4655 56 26 234055
Décembre 2008 36 663 7 12 28104
Novembre 2008 51 1090 9 10 35948
Octobre 2008 50 609 5 10 26582
Septembre 2008 40 619 5 10 24365
Août 2008 28 252 6 9 21916
Juillet 2008 20 256 5 7 16733
Juin 2008 17 363 6 26 18903
Mai 2008 17 180 2 10 13320
Avril 2008 16 146 3 8 16063
Mars 2008 18 158 1 9 12835
Février 2008 19 155 2 9 9679
Janvier 2008 22 164 5 7 9607
* 2007 276 2246 55 9 102999
Décembre 2007 21 167 5 8 17081
Novembre 2007 20 168 3 6 8467
Octobre 2007 21 147 4 5 8193
Septembre 2007 22 183 4 9 9896
Août 2007 23 226 2 6 9096
Juillet 2007 18 127 1 4 10165
2007-07-01 0 3 0 4 345
2007-07-02 0 3 0 4 509
2007-07-03 1 4 0 3 302
2007-07-04 1 6 0 0 431
2007-07-05 0 1 0 3 348
2007-07-06 0 6 0 3 356
2007-07-07 1 6 0 3 274
2007-07-08 0 4 0 4 314
2007-07-09 0 5 0 0 411
2007-07-10 0 2 0 4 320
2007-07-11 0 0 0 4 238
2007-07-12 2 2 0 3 264
2007-07-13 1 4 0 0 268
2007-07-14 2 3 0 2 203
2007-07-15 0 0 0 0 245
2007-07-16 2 10 1 4 539
2007-07-17 0 5 0 4 322
2007-07-18 0 5 0 4 436
2007-07-19 0 10 0 0 392
2007-07-20 1 4 0 3 235
2007-07-21 1 2 0 2 215
2007-07-22 0 2 0 0 250
2007-07-23 3 6 0 3 602
2007-07-24 1 8 0 3 356
2007-07-25 0 7 0 4 392
2007-07-26 0 2 0 3 281
2007-07-27 0 9 0 4 327
2007-07-28 0 0 0 3 246
2007-07-29 1 3 0 2 219
2007-07-30 1 2 0 4 276
2007-07-31 0 3 0 4 249
Juin 2007 25 309 2 6 13196
Mai 2007 30 315 8 7 11830
Avril 2007 44 428 13 9 13382
Mars 2007 52 176 13 4 1693
2007-03-08 5 5 1 2 0
2007-03-09 4 10 2 3 0
2007-03-10 0 0 0 1 0
2007-03-11 0 2 0 2 0
2007-03-12 1 5 0 2 0
2007-03-13 18 26 0 2 0
2007-03-14 4 7 0 3 0
2007-03-15 0 1 0 1 0
2007-03-16 0 1 0 2 0
2007-03-17 0 0 0 1 0
2007-03-18 0 0 2 2 0
2007-03-19 1 4 1 2 0
2007-03-20 3 10 2 2 0
2007-03-21 1 3 0 1 0
2007-03-22 1 13 1 3 0
2007-03-23 4 12 1 4 0
2007-03-24 1 2 1 1 0
2007-03-25 0 2 0 2 0
2007-03-26 4 12 1 2 223
2007-03-27 2 30 0 3 507
2007-03-28 0 13 0 3 452
2007-03-29 1 6 0 2 100
2007-03-30 0 3 0 3 131
2007-03-31 2 9 1 3 280